[[{"header":{"parameterUnit":"m.s-1","parameterCategory":1,"la1":30.2991,"la2":30.254,"lo1":-89.0895,"lo2":-89.0444,"dy":0.0017,"dx":0.0017,"nx":28,"ny":28,"refTime":"2023-08-06T03:00:00:Z","depth":0,"parameterNumber":2,"parameterNumberName":"U-component_of_WINDS"},"data":[0,0,0,0,0,0,0,0,0,0,0,0,0,0,0,0,0,0,0,0,0,0,0,0,0,0,0,0,0,0,0,0,0,0,0,0,0,0,0,0,0,0,0,0,0,0,0,0,0,0,0,0,0,0,0,0,0,0,4.2109,4.2109,0,4.2179,4.2179,4.218,4.2139,4.2136,4.2134,4.2133,4.2206,4.221,4.2214,0,0,0,0,0,0,0,0,0,0,0,0,0,4.1941,4.1944,4.2108,4.2109,4.211,4.2178,4.2179,4.218,4.2139,4.2136,4.2134,4.2132,4.2205,4.2209,4.2214,0,0,0,0,0,0,0,0,0,0,0,0,0,4.2013,4.1945,4.2108,4.2098,4.2097,4.2178,4.2179,4.2181,4.2139,4.2136,4.2133,4.2131,4.2203,4.2209,4.2215,4.231,0,0,4.2232,4.2235,0,0,0,0,0,0,0,0,4.2009,4.2019,4.2098,4.2099,4.2098,4.2147,4.2147,4.2224,4.214,4.2124,4.2133,4.2129,4.2189,4.2196,4.2215,4.2314,4.2317,4.2233,4.2236,4.2239,4.224,0,0,0,0,0,0,0,4.2004,4.2016,4.2136,4.21,4.21,4.209,4.2097,4.2162,4.2172,4.2125,4.2122,4.2131,4.2188,4.221,4.2217,4.2318,4.2232,4.2238,4.2241,4.2243,4.2499,4.2502,0,0,0,0,0,0,4.1999,4.2012,4.2134,4.2138,4.2045,4.2096,4.2103,4.2134,4.2171,4.2174,4.2133,4.2128,4.2202,4.221,4.2219,4.2333,4.2238,4.2244,4.2247,4.2495,4.2499,4.2503,0,0,0,0,0,0,4.1996,4.201,4.2131,4.2074,4.2089,4.2102,4.2137,4.2137,4.2159,4.2178,4.218,4.2153,4.22,4.2211,4.2288,4.2335,4.2246,4.2252,4.2491,4.2497,4.2501,4.2563,0,0,0,0,0,0,4.1991,4.2009,4.2045,4.2075,4.2092,4.2198,4.214,4.2141,4.2169,4.2163,4.2197,4.22,4.2198,4.228,4.2294,4.2342,4.2256,4.2487,4.2494,4.25,4.2557,4.2569,4.258,0,0,0,0,0,4.1985,4.206,4.2047,4.2062,4.2137,4.2201,4.221,4.2206,4.2173,4.2209,4.2221,4.2199,4.2328,4.2288,4.2303,4.2354,4.2484,4.2492,4.2499,4.2551,4.2567,4.258,0,0,0,0,0,0,4.2036,4.2064,4.205,4.2137,4.2167,4.2194,4.2239,4.2223,4.2264,4.2257,4.2251,4.2259,4.2339,4.2354,4.2309,4.2449,4.2401,4.2412,4.2435,4.245,4.2462,4.2456,4.2261,0,0,0,0,0,4.2057,4.2106,4.2128,4.2203,4.2218,4.2227,4.2254,4.2249,4.228,4.2292,4.231,4.2342,4.2389,4.2421,4.2466,4.2559,4.2566,4.2602,4.2614,4.2623,4.2632,4.2683,4.2699,4.2528,4.2528,4.2528,0,0,4.2101,4.2123,4.2154,4.2213,4.2236,4.2287,4.2237,4.2294,4.2332,4.2301,4.2374,4.2389,4.2423,4.2509,4.2547,4.2524,4.2681,4.2633,4.264,4.2644,4.2692,4.2708,4.2723,4.2533,4.2532,4.2531,0,0,4.2208,4.2229,4.2293,4.2317,4.2352,4.2357,4.2373,4.2402,4.2411,4.2484,4.2462,4.2508,4.259,4.2616,4.264,4.2758,4.2738,4.2773,4.2834,4.2883,4.2897,4.2909,4.295,4.2965,4.2782,4.2782,4.2783,0,4.2258,4.2334,4.2328,4.2386,4.2413,4.2388,4.2453,4.2477,4.2525,4.2544,4.2518,4.2621,4.2643,4.2733,4.2762,4.2783,4.28,4.2768,4.2895,4.2907,4.2918,4.2958,4.2973,4.2786,4.2786,4.2785,4.2785,0,4.2394,4.2447,4.2495,4.2541,4.2574,4.2636,4.264,4.2674,4.2666,4.2675,4.275,4.2776,4.2825,4.2847,4.284,4.2937,4.2922,4.2896,4.2847,4.2938,4.2975,4.2991,4.2792,4.279,4.2789,4.2788,0,0,4.2533,4.2576,4.2594,4.2615,4.2652,4.2693,4.2754,4.2802,4.2831,4.2866,4.2917,4.2988,4.2964,4.2991,4.2987,4.3031,4.3122,4.2999,4.3,4.302,4.323,4.3249,4.3266,4.311,4.3113,4.3115,4.3227,0,4.2641,4.2746,4.2743,4.2842,4.2891,4.2868,4.2921,4.295,4.296,4.3004,4.3015,4.3065,4.303,4.3046,4.3088,4.3102,4.3164,4.3094,4.3157,4.3159,4.3147,4.3286,4.3305,4.341,4.3242,4.3244,4.3246,0,4.278,4.2819,4.2922,4.2952,4.2973,4.302,4.3064,4.3107,4.3139,4.3144,4.3175,4.3164,4.3227,4.3178,4.3264,4.3217,4.3243,4.3254,4.3258,4.3262,4.3207,4.3293,4.3443,4.3458,4.3269,4.3267,4.3265,0,4.287,4.2948,4.302,4.3038,4.3076,4.311,4.3127,4.3157,4.3186,4.3226,4.3245,4.3291,4.3316,4.3353,4.3356,4.332,4.3443,4.3394,4.3448,4.3448,4.3473,4.3471,4.3628,4.3492,4.3492,4.3492,4.3492,0,4.299,4.3054,4.306,4.3104,4.3175,4.3173,4.3243,4.3258,4.3285,4.3331,4.3316,4.336,4.3361,4.3407,4.341,4.348,4.3492,4.3498,4.3497,4.3498,4.3497,4.3514,4.3506,4.3496,4.3495,4.3494,4.3494,0,4.3101,4.3108,4.3185,4.3214,4.3223,4.3274,4.33,4.3342,4.3351,4.341,4.3424,4.3438,4.3491,4.3498,4.356,4.3562,4.3647,4.364,4.3635,4.3634,4.3687,4.3681,4.3858,4.3881,4.3732,4.3734,4.3735,0,4.3177,4.3225,4.326,4.329,4.3309,4.3357,4.3387,4.3387,4.3419,4.3461,4.3498,4.355,4.359,4.3677,4.3693,4.374,4.3733,4.3792,4.374,4.374,4.3733,4.3729,4.3734,4.3802,4.3803,4.3805,4.3806,0,4.3309,4.3311,4.3354,4.3399,4.3435,4.3471,4.3504,4.353,4.3535,4.3572,4.3625,4.3657,4.3721,4.3772,4.3819,4.3837,4.3823,4.3822,4.3837,4.3838,4.3833,4.3835,4.3661,4.3818,4.3817,4.3816,4.3815,4.3815,4.3404,4.3446,4.3477,4.3526,4.3552,4.3584,4.3624,4.3639,4.3683,4.3734,4.3732,4.3792,4.3824,4.3886,4.3908,4.3955,4.3935,4.3957,4.3962,4.3967,4.3972,4.3827,4.3964,4.3963,4.3963,4.3963,4.3962,0,4.3535,4.3554,4.36,4.3647,4.3686,4.3669,4.3705,4.3739,4.3791,4.3822,4.3863,4.3925,4.3975,4.3996,4.4045,4.4078,4.4073,4.4091,4.4088,4.4092,4.3987,4.3968,4.4095,4.4095,4.4095,4.4095,4.4095,4.4095,4.3608,4.3678,4.3683,4.3766,4.3784,4.3842,4.3864,4.3894,4.3919,4.3988,4.403,4.4043,4.407,4.4121,4.4166,4.4171,4.419,4.4211,4.4213,4.4113,4.41,4.4087,4.407,4.4215,4.4215,4.4314,4.4315,4.4316]},{"header":{"parameterUnit":"m.s-1","parameterCategory":1,"la1":30.2991,"la2":30.254,"lo1":-89.0895,"lo2":-89.0444,"dy":0.0017,"dx":0.0017,"nx":28,"ny":28,"refTime":"2023-08-06T03:00:00:Z","depth":0,"parameterNumber":3,"parameterNumberName":"V-component_of_WINDS"},"data":[0,0,0,0,0,0,0,0,0,0,0,0,0,0,0,0,0,0,0,0,0,0,0,0,0,0,0,0,0,0,0,0,0,0,0,0,0,0,0,0,0,0,0,0,0,0,0,0,0,0,0,0,0,0,0,0,0,0,1.3784,1.3784,0,1.3815,1.3816,1.3816,1.3809,1.3809,1.3808,1.3808,1.3841,1.3842,1.3844,0,0,0,0,0,0,0,0,0,0,0,0,0,1.3719,1.372,1.3784,1.3784,1.3785,1.3815,1.3816,1.3816,1.381,1.3809,1.3808,1.3807,1.384,1.3842,1.3844,0,0,0,0,0,0,0,0,0,0,0,0,0,1.3748,1.372,1.3784,1.3785,1.3785,1.3815,1.3816,1.3816,1.381,1.3809,1.3808,1.3807,1.384,1.3842,1.3844,1.3875,0,0,1.385,1.3851,0,0,0,0,0,0,0,0,1.3747,1.3751,1.3784,1.3785,1.3786,1.3808,1.3805,1.3836,1.381,1.3801,1.3808,1.3807,1.383,1.3833,1.3841,1.3876,1.3877,1.3851,1.3852,1.3853,1.3853,0,0,0,0,0,0,0,1.3745,1.3749,1.3796,1.3785,1.3786,1.3784,1.3787,1.3811,1.382,1.3801,1.3801,1.3805,1.3831,1.3839,1.3842,1.3878,1.3851,1.3852,1.3854,1.3855,1.394,1.3941,0,0,0,0,0,0,1.3742,1.3748,1.3795,1.3797,1.3763,1.3786,1.379,1.3801,1.382,1.3822,1.3805,1.3804,1.3836,1.3839,1.3843,1.388,1.3853,1.3855,1.3856,1.3939,1.394,1.3941,0,0,0,0,0,0,1.3741,1.3746,1.3794,1.3772,1.3778,1.3788,1.3801,1.3802,1.3811,1.3823,1.3825,1.3812,1.3835,1.384,1.3867,1.3881,1.3856,1.3858,1.3937,1.3939,1.394,1.3955,0,0,0,0,0,0,1.3739,1.3746,1.3757,1.3773,1.3779,1.3817,1.3802,1.3804,1.3815,1.3813,1.383,1.3832,1.3835,1.3864,1.3869,1.3884,1.3859,1.3936,1.3938,1.394,1.3953,1.3956,1.3959,0,0,0,0,0,1.3736,1.376,1.3758,1.3764,1.3794,1.3818,1.3822,1.3825,1.3816,1.3828,1.3835,1.3831,1.3879,1.3866,1.3872,1.3888,1.3935,1.3938,1.394,1.3952,1.3956,1.3959,0,0,0,0,0,0,1.3747,1.3762,1.376,1.379,1.3802,1.3817,1.3832,1.3829,1.3845,1.3844,1.3847,1.3851,1.3878,1.3886,1.3872,1.3919,1.3906,1.3909,1.3913,1.3917,1.392,1.3918,1.3861,0,0,0,0,0,1.3753,1.377,1.3783,1.3808,1.3814,1.3822,1.3833,1.3834,1.3847,1.3853,1.3862,1.3876,1.3894,1.3906,1.3923,1.3954,1.3957,1.3968,1.3971,1.3973,1.3977,1.3994,1.3998,1.3948,1.3948,1.3948,0,0,1.3765,1.3775,1.3786,1.381,1.382,1.3839,1.3827,1.3847,1.3861,1.3856,1.3882,1.3889,1.3905,1.3933,1.3947,1.3941,1.3991,1.3976,1.3978,1.398,1.3996,1.4001,1.4005,1.395,1.3949,1.3949,0,0,1.3796,1.3806,1.3828,1.3838,1.3854,1.3858,1.3864,1.3878,1.3883,1.3909,1.3906,1.3922,1.3953,1.3964,1.3974,1.4009,1.4006,1.4015,1.4032,1.4048,1.4052,1.4056,1.4069,1.4073,1.4018,1.4018,1.4018,0,1.3809,1.3837,1.3839,1.386,1.3871,1.3867,1.3889,1.3899,1.3919,1.3927,1.392,1.3958,1.3968,1.4,1.4008,1.4016,1.4022,1.4013,1.4052,1.4055,1.4058,1.4071,1.4075,1.4019,1.4019,1.4018,1.4018,0,1.3853,1.3872,1.3888,1.3907,1.3919,1.3941,1.3946,1.3959,1.3959,1.3964,1.3991,1.4003,1.4022,1.403,1.403,1.4061,1.4057,1.4051,1.4038,1.4064,1.4076,1.408,1.402,1.402,1.4019,1.4019,0,0,1.3892,1.3912,1.3918,1.3927,1.3943,1.3958,1.398,1.3998,1.4009,1.4023,1.4041,1.4067,1.4061,1.4072,1.4073,1.4088,1.4115,1.408,1.408,1.4086,1.4151,1.4156,1.4161,1.4113,1.4114,1.4115,1.415,0,1.3925,1.3962,1.3965,1.3998,1.4016,1.4013,1.4031,1.4043,1.4049,1.4065,1.4072,1.409,1.4081,1.4087,1.4102,1.4109,1.4128,1.4107,1.413,1.4131,1.4127,1.4167,1.4172,1.4204,1.4154,1.4155,1.4155,0,1.3969,1.3984,1.4019,1.4033,1.4041,1.4057,1.4075,1.409,1.4104,1.4107,1.4119,1.4119,1.4141,1.4127,1.4157,1.4142,1.4152,1.4157,1.4158,1.4161,1.4145,1.4171,1.4215,1.422,1.4163,1.4162,1.4161,0,1.3994,1.4024,1.4049,1.4056,1.4073,1.4085,1.4092,1.4105,1.4116,1.4132,1.4139,1.4157,1.4166,1.418,1.4184,1.4174,1.4214,1.4201,1.4218,1.4218,1.4227,1.4226,1.4273,1.4233,1.4233,1.4233,1.4232,0,1.4031,1.4053,1.406,1.4076,1.41,1.4103,1.4127,1.4133,1.4145,1.4162,1.416,1.4175,1.418,1.4197,1.42,1.4225,1.4229,1.4232,1.4233,1.4233,1.4232,1.4239,1.4237,1.4234,1.4234,1.4233,1.4233,0,1.4064,1.407,1.4096,1.411,1.4114,1.4131,1.4143,1.4158,1.4163,1.4185,1.419,1.4198,1.4218,1.4223,1.4246,1.4249,1.4278,1.4276,1.4273,1.4273,1.429,1.4288,1.4343,1.435,1.4305,1.4305,1.4306,0,1.4087,1.4104,1.4119,1.413,1.4138,1.4156,1.4167,1.4171,1.4183,1.42,1.4212,1.4231,1.4247,1.4278,1.4287,1.4304,1.4303,1.4321,1.4306,1.4305,1.4304,1.4303,1.4305,1.4324,1.4325,1.4325,1.4326,0,1.4128,1.413,1.4146,1.4164,1.4177,1.4191,1.4204,1.4213,1.4219,1.4232,1.4252,1.4264,1.4287,1.4306,1.4324,1.4332,1.433,1.433,1.4335,1.4335,1.4333,1.4334,1.4281,1.4329,1.4329,1.4328,1.4328,1.4328,1.4157,1.4172,1.4185,1.4203,1.4213,1.4226,1.424,1.4247,1.4264,1.4283,1.4284,1.4306,1.4319,1.4343,1.4352,1.4369,1.4363,1.4371,1.4372,1.4374,1.4376,1.433,1.4372,1.4372,1.4372,1.4372,1.4372,0,1.4198,1.4206,1.4223,1.4241,1.4256,1.4252,1.4266,1.4279,1.4297,1.431,1.4325,1.4348,1.4366,1.4376,1.4394,1.4406,1.4405,1.4411,1.441,1.4412,1.4379,1.4373,1.4411,1.4411,1.4411,1.4411,1.4411,1.4411,1.4221,1.4245,1.4249,1.4279,1.4287,1.4307,1.4316,1.4328,1.4338,1.4363,1.4378,1.4384,1.4396,1.4415,1.4432,1.4434,1.4441,1.4447,1.4449,1.4418,1.4414,1.441,1.4405,1.4448,1.4448,1.448,1.448,1.448]}]]